www.pogodaiklimat.ru

Погода и климат >> Архив погоды >> Китай >> Nanyue


ПОГОДА в Nanyue

  • Прогноз погоды в Nanyue
  • Монитор погоды в Nanyue
  • Климат города

АРХИВ ПОГОДЫ в Nanyue

Время (UTC), дата Ветер
(напр.,м/с)
 
Видим.   Явления Облачность Т
(С)
Тd
(С)
f
(%)
Тe
(С)
Тes
(С)
Комфортность P
(гПа)
Po
(гПа)
Тmin
(С)
Tmax
(С)
R
(мм)
S
(см)
03 17.02 С 1 8000 м 9/9 100 м
[]
+12.9 +11.0 88 +13 +14 1023.7 1024.0
06 17.02 штиль 0 300 м туман 10/10 300 м
[]
+13.1 +11.3 89 +13 +13 1021.9 1022.0 +10.9
09 17.02 штиль 0 6000 м дымка {туман} 10/10 600 м
[]
+13.1 +10.3 83 +13 +13 1021.2 1021.0
12 17.02 С 1 9000 м {туман} 10/10 600 м
[]
+11.6 +9.2 85 +11 +11 1023.8 1024.0
18 17.02 Ю 1 9000 м ?/? +11.4 +9.3 87 +11 +11 1024.9 1025.0 +14.7
21 17.02 Ю 2 н/о дымка ?/? +10.0 +9.1 94 +8 +8 1023.9 1024.0
00 18.02 ЮЗ 2 1300 м дымка ясно +9.8 +9.7 99 +8 +9 1025.8 1026.0
03 18.02 штиль 0 4400 м дымка ясно +15.2 +10.4 73 +15 +31 опасность
простуды
1024.0 1024.0
06 18.02 ЮЗ 1 н/о мгла ясно +15.4 +8.9 65 +16 +29 опасность
простуды
1022.1 1022.0 +7.1
09 18.02 штиль 0 н/о дымка ясно +13.3 +9.0 75 +13 +15 1022.1 1022.0
12 18.02 В 6 200 м дымка 3/3 50 м
[]
+8.9 +8.1 95 +5 +5 1023.9 1024.0
18 18.02 Ю 8 900 м дымка {туман} ?/? +9.6 +9.1 97 +5 +5 1020.0 878.2 +16.6
21 18.02 ЮЗ 12
{19}
6000 м дымка ?/? +12.1 +9.3 83 +8 +8 1016.8 1017.0
00 19.02 Ю 14
{21}
3100 м дымка 9/9 600 м
[]
+10.8 +9.1 89 +6 +6 1017.5 1039.7
03 19.02 ЮЗ 17
{27}
8000 м 3/3 300 м
[]
+14.8 +7.6 62 +12 +12 1015.1 1015.0
06 19.02 ЮЗ 10
{27}
10 км 3/3 300 м
[]
+15.5 +8.7 64 +13 +14 1012.4 1012.0 +8.9
09 19.02 Ю 14
{23}
8000 м 1/1 300 м
[]
+14.6 +7.9 64 +12 +12 1008.8 1009.0
12 19.02 Ю 15
{21}
12 км 5/5 300 м
[]
+13.6 +6.9 64 +10 +10 1009.7 1010.0
18 19.02 ЮЗ 14
{22}
17 км ?/? +12.2 +7.7 74 +8 +8 1009.9 1010.0 +16.5
21 19.02 Ю 14
{21}
15 км ?/? +12.0 +9.0 82 +8 +8 1010.2 1010.0
00 20.02 Ю 11
{21}
13 км 1/1
[]
+12.3 +9.7 84 +9 +9 1012.6 1013.0
03 20.02 З 5
{17}
15 км 9/9 300 м
[]
+16.5 +10.6 68 +16 +16 1014.1 1014.0
06 20.02 Ю 2 13 км 9/9 200 м
[]
+16.5 +11.4 72 +17 +18 1012.9 1013.0 +11.4
09 20.02 В 1 10 км 9/9 100 м
[]
+15.0 +11.4 79 +16 +16 1013.0 1013.0
12 20.02 СВ 6 100 м в посл. час туман 9/9 <50 м
[]
+11.2 +10.7 97 +8 +8 1015.0 1015.0
21 20.02 ЮВ 9 <100 м туман ?/? +9.5 +9.4 99 +5 +5 1013.8 1014.0
00 21.02 Ю 13 <100 м туман ?/? +10.0 +9.9 99 +5 +5 1015.6 1016.0 0.0
03 21.02 Ю 12
{18}
<100 м туман ?/? +10.9 +10.7 99 +6 +6 1016.2 1016.0
06 21.02 Ю 13
{22}
н/о в посл. час туман 4/4 300 м
[]
+13.7 +13.1 96 +10 +10 1013.1 1014.7 +9.0
09 21.02 Ю 10
{24}
800 м дымка 10/10 100 м
[]
+10.7 +10.4 98 +6 +6 1013.6 1014.0
12 21.02 Ю 5
{24}
100 м туман ?/? +7.8 +7.7 99 +4 +4 1016.3 1016.0
18 21.02 С 7 <100 м туман ?/? -4.3 -4.6 98 -13 -13 1019.3 1019.0 +13.7 0.7
21 21.02 штиль 0 <100 м туман ?/? -4.3 -4.6 98 -6 -6 1020.1 1020.0
00 22.02 С 5 <100 м слабый переохл. дождь (гололёд) [диам. гололёда 60 мм] ?/? -5.5 -5.9 97 -13 -13 1023.0 1023.0 10
03 22.02 <100 м слабый переохл. дождь (гололёд) {туман} ?/? -4.9 -5.3 97 1027.3 1027.0
06 22.02 С 8 200 м слабый переохл. дождь (гололёд) {туман} [диам. гололёда 70 мм] ?/? -4.3 -4.7 97 -13 -13 1026.0 1026.0 -5.6 7
09 22.02 С 6 3500 м в посл. час туман {дождь} 10/10 <50 м
[]
-4.4 -4.8 97 -12 -12 1026.0 1026.0
12 22.02 С 7 3600 м дымка {дождь, туман} [диам. гололёда 80 мм] 10/10 <50 м
[]
-4.4 -4.8 97 -13 -13 1028.2 1028.0 0.4
18 22.02 <100 м ?/? -3.9 -4.2 98 1028.5 877.4 -0.6
21 22.02 <100 м ?/? -2.2 -2.5 98 1028.7 1029.0
00 23.02 С 6 <100 м слабый переохл. дождь (гололёд) [диам. гололёда 80 мм] ?/? -3.6 -3.9 98 -11 -11 1031.3 1056.2 8
03 23.02 С 1 <100 м переохл. туман {дождь} ?/? -3.1 -3.4 98 -6 -6 1031.8 1032.0
06 23.02 С 2 <100 м туман {дождь} [диам. гололёда 80 мм] ?/? -2.6 -2.9 98 -7 -7 1029.9 1030.0 -4.7 0.0
09 23.02 С 4 <100 м туман ?/? -2.3 -2.4 99 -9 -9 1028.7 1029.0
12 23.02 СВ 5 <100 м слабый переохл. дождь (гололёд) {туман} [диам. гололёда 80 мм] ?/? -2.4 -2.5 99 -9 -9 1030.4 1030.0 0.1
18 23.02 <100 м ?/? -2.6 -2.7 99 1031.0 1031.0 -1.7 11
21 23.02 <100 м ?/? -3.9 -4.2 98 1030.1 1030.0

 

Местоположение метеостанции Nanyue (Китай): широта 27.30 долгота 112.70 высота над уровнем моря 1268 м.

В архиве по умолчанию представлена погода в Nanyue за последнюю неделю. Архивные данные за месяц целиком и за предыдущие месяцы, начиная с января 2011 года, Вы можете получить, выбрав интересующий диапазон дат из раскрывающегося списка и нажав кнопку "Ввод!".

Внимание! Время в таблицах - всемирное. Для получения местного времени необходимо прибавить поправку, которая в Nanyue равна 8 ч.

Смотрите также архив погоды в соседних городах и на ближайших метеорологических станциях:

Погода в Changsha (Китай) (105 км)
Погода в Shaoyang (Китай) (123 км)
Погода в Lingling (Китай) (161 км)
Погода в Chenzhou (Китай) (170 км)
Погода в Yichun (Китай) (175 км)
Погода в Wugang (Китай) (215 км)
Погода в Changde (Китай) (219 км)
Погода в Jian (Китай) (224 км)
Погода в Yueyang (Китай) (234 км)
Погода в Yuanling (Китай) (261 км)

Пояснения к столбцам:

Ветер - указаны скорость ветра в м/с - средняя за 10 мин, порывы в срок и между сроками (в фигурных скобках) и направление, откуда дует ветер: С - северный, СВ - северо-восточный, В - восточный, ЮВ - юго-восточный, Ю - южный, ЮЗ - юго-западный, З - западный, СЗ - северо-западный.
Видимость - горизонтальная дальность видимости в метрах или километрах. При видимости от 1 до 10 км при отсутствии осадков обычно наблюдается дымка, при ухудшении видимости до 1 км и менее - туман. В сухую погоду видимость может ухудшаться дымом, пылью или мглою.
Явления - указаны атмосферные явления, наблюдавшиеся в срок или в последний час перед сроком; фигурными скобками обозначены явления, наблюдавшиеся между сроками (за 1-3 часа до срока); квадратными скобками обозначены град или гололедные отложения с указанием их диаметра в мм.
Облачность - указаны через наклонную черту общая и нижняя облачность в баллах и высота нижней границы облаков в метрах; квадратными скобками обозначены формы облаков: Ci - перистые, Cs - перисто-слоистые, Cc - перисто-кучевые, Ac - высококучевые, As - высокослоистые, Sc - слоисто-кучевые, Ns - слоисто-дождевые, Cu - кучевые, Cb - кучево-дождевые. Подробнее классификацию облаков см. в Атласе облаков (PDF).
T - Температура воздуха - температура, измеренная на высоте 2 м над землей.
Td - Температура точки росы - температура, при понижении до которой содержащийся в воздухе водяной пар достигнет насыщения.
f - Относительная влажность воздуха - влажноcть воздуха, измеренная на высоте 2 м над землей.
Te - Эффективная температура - температура, которую ощущает одетый по сезону человек в тени. Характеристика душности погоды. При расчете учитывается влияние влажности воздуха и скорости ветра на теплоощущения человека.
Tes - Эффективная температура на солнце - температура, которую ощущает человек, с поправкой на солнечный нагрев. Характеристика знойности погоды. Зависит от высоты солнца над горизонтом, облачности и скорости ветра. Ночью, в пасмурную погоду, а также при ветре 12 м/с и более поправка равна нулю.
P - Атмосферное давление - приведенное к уровню моря атмосферное давление.
Po - Атмосферное давление - измеренное на уровне метеостанции атмосферное давление.
Tmin - Минимальная температура - минимум температуры воздуха на высоте 2 м над землей.
Tmax - Максимальная температура - максимум температуры воздуха на высоте 2 м над землей.
R - Количество осадков - Количество выпавших осадков, мм. При наведении курсора мыши на число - период времени, за который выпало указанное количество осадков.
S - Снежный покров - Высота снежного покрова, см. При наведении курсора мыши на число - состояние снежного покрова и степень покрытия местности в баллах.